Regional Weather Roundup
Issued by NWS

Home | Current Version | Previous Version | Text Only | Print | Product List | Glossary On
Versions: 1 2 3 4 5 6 7 8 9 10 11 12 13 14 15 16 17 18 19 20 21 22 23 24 25 26 27 28 29 30 31 32 33 34 35 36 37 38 39 40 41 42 43 44 45 46 47 48 49 50
000
ASUS45 KBOU 110210
RWRCO

WEATHER ROUNDUP FOR COLORADO
NATIONAL WEATHER SERVICE DENVER/BOULDER CO
700 PM MST MON DEC 10 2018

NOTE: "FAIR" INDICATES FEW OR NO CLOUDS BELOW 12000 FEET WITH NO
SIGNIFICANT WEATHER AND/OR OBSTRUCTIONS TO VISIBILITY.

COZ001>005-013-030-031-110300-
...NORTHWEST COLORADO...

CITY           SKY/WX    TMP DP  RH WIND       PRES   REMARKS
CRAIG          FAIR      14   9  80 W3        30.21S
HAYDEN         FAIR      20   7  57 SE13      30.21F WCI   7
MEEKER         FAIR      19  11  70 E3        30.21S
RANGELY        FAIR      20  17  87 CALM      30.25R
RABBIT EARS PA FAIR      25   5  42 SW7       30.22F WCI  17
STEAMBOAT SPGS FAIR      16   8  71 CALM      30.22S
WALDEN         FAIR      19   0  42 SE3       30.20S
$$

COZ006>008-011-110300-
...WEST CENTRAL VALLEYS...

CITY           SKY/WX    TMP DP  RH WIND       PRES   REMARKS
GRAND JUNCTION FAIR      32  25  75 CALM      30.26F
MONTROSE       FAIR      29  20  69 S3        30.28S
EAGLE          FAIR      18  10  71 SE3       30.29S
RIFLE          FAIR      28  18  66 E3        30.27S
DELTA          FAIR      34  14  43 E6        30.28R WCI  29
NUCLA          FAIR      32  19  59 SE6       30.29S WCI  26
$$

COZ017>023-064>068-110300-
...SOUTHWEST COLORADO...

CITY           SKY/WX    TMP DP  RH WIND       PRES   REMARKS
DURANGO        FAIR      28  16  60 N5        30.30R WCI  23
CORTEZ         FAIR      25  20  81 E5        30.28F WCI  19
PAGOSA SPRINGS FAIR      24   9  53 CALM      30.30S
TELLURIDE      FAIR      32   5  32 CALM      30.29F
WOLF CREEK PAS FAIR      23 -22  13 SW14      30.40S WCI  11
$$

COZ009-010-012-014-032>034-037-058>063-110300-
...CENTRAL COLORADO...

CITY           SKY/WX    TMP DP  RH WIND       PRES   REMARKS
ASPEN          FAIR      17   6  62 SW5       30.22S WCI  10
BUENA VISTA    FAIR      18  -2  40 W3        30.23F
COPPER MTN     FAIR      32 -22   9 SW17G29   30.30R WCI  21
BERTHOUD PASS  FAIR      23  10  58 W29       30.26S WCI   6
DAKOTA HILL    FAIR      28 -18  12 S8        30.23F WCI  20
COTTONWOOD PAS FAIR      34 -27   6 NW3       30.26S
GUNNISON       FAIR       7   1  76 CALM      30.35R
GRANBY         FAIR       9   4  78 CALM      30.25F
KREMMLING      FAIR      10   5  79 CALM      30.27F
LEADVILLE      FAIR      18  -4  37 NE5       30.24S WCI  11
SALIDA         FAIR      30  -1  26 CALM      30.29S
SUNLIGHT       CLOUDY    21   3  45 SW12G22   30.29F WCI   9
WILKERSON PASS FAIR      27 -18  13 SW15G21   30.28F WCI  15
$$

COZ069>075-110300-
...SAN LUIS VALLEY/SANGRE DE CRISTO MOUNTAINS...

CITY           SKY/WX    TMP DP  RH WIND       PRES   REMARKS
ALAMOSA        FAIR      18   1  47 CALM      30.30S
DEL NORTE      FAIR      17  -2  42 W8        30.31S WCI   7
LA VETA PASS   NOT AVBL
SAGUACHE       FAIR      19   5  53 CALM      30.31S
$$

COZ035-036-038>040-110300-
...NORTHERN COLORADO FRONT RANGE...

CITY           SKY/WX    TMP DP  RH WIND       PRES   REMARKS
DENVER INTL AP MOCLDY    44  -1  15 SW9       30.06F
AURORA         MOCLDY    43   0  16 S6        30.08S
FRONT RANGE AP MOCLDY    39   7  26 S9        30.07F
ERIE MUNI ARPT FAIR      32  15  48 N6        30.12S WCI  27
BOULDER MUN AP FAIR      37  12  35 CALM      30.06S
CENTENNIAL     MOCLDY    41   3  20 SE6       30.08F
BROOMFIELD     NOT AVBL
FORT COLLINS   FAIR      38  15  39 CALM      30.07S
LONGMONT       FAIR      33  19  56 N5        30.08F WCI  29
$$

COZ041-046-047-076>085-087-088-110300-
...PIKES PEAK/PALMER DIVIDE AND SOUTHERN FOOTHILLS...

CITY           SKY/WX    TMP DP  RH WIND       PRES   REMARKS
COLO. SPRINGS  MOCLDY    30   3  31 N8        30.14F WCI  22
A. F. ACADEMY  CLOUDY    28   3  33 N7        30.14S WCI  21
SCHRIEVER AFB  NOT AVBL
CHEYENNE MTN   CLOUDY    39   2  20 NW3       30.09F
ELLICOTT         N/A    N/A N/A N/A CALM      30.13F
FALCON         FAIR      32  -1  24 W6        30.16S WCI  26
FORT CARSON    NOT AVBL
LIMON          FAIR      29   3  33 SE6       30.11F WCI  23
MONUMENT HILL  FAIR      36  -4  18 S12       30.14F
CANON CITY     NOT AVBL
WALSENBURG     NOT AVBL
TRINIDAD       FAIR      39   1  20 S7        30.13F
$$

COZ042>045-048>051-090-091-110300-
...NORTHEAST COLORADO...

CITY           SKY/WX    TMP DP  RH WIND       PRES   REMARKS
GREELEY ARPT   FAIR      30  13  49 N3        30.07S
AKRON          FAIR      41   3  20 SW13      30.05F
BURLINGTON     FAIR      31   5  33 SW10      30.11S WCI  22
WRAY           FAIR      36   9  32 SW8       30.07F
YUMA           FAIR      32   9  37 S9        30.05F WCI  24
STERLING       FAIR     N/A N/A N/A W3        30.04S
HOLYOKE        FAIR      34  18  51 SW7       30.05F WCI  28
FORT MORGAN      N/A     34   4  28 S5        30.05S WCI  30
$$

COZ086-089-092>099-110300-
...SOUTHEAST COLORADO...

CITY           SKY/WX    TMP DP  RH WIND       PRES   REMARKS
PUEBLO         FAIR      32   3  29 N8        30.11S WCI  25
LA JUNTA       FAIR      40  -3  16 E6        30.10F
LAMAR          FAIR      28   3  34 CALM      30.10F
SPRINGFIELD      N/A     29   6  38 SW9       30.13F WCI  20
$$



USA.gov is the U.S. government's official web portal to all federal, state and local government web resources and services.